Lid_Strength_Index
4 3 3 4 4 3 4 4 4 4 4 4 2 1 1 1 2 5 7 6 6 9 7 5 6 8 9 9 11 8 8 8 9 12 13 13 13 13 14 14 15 15 16 16 15 16 19 8 9 13 10 7 7 7
4 4 3 4 4 4 3 3 4 4 4 4 3 1 1 1 2 4 8 5 4 7 6 5 4 4 5 5 8 8 8 8 8 10 10 11 13 12 13 16 11 14 12 14 13 14 8 9 9 7 7 7 7 7
4 4 4 4 4 4 4 3 4 4 4 4 4 3 1 2 2 3 8 7 6 8 7 7 6 4 5 5 6 7 6 5 6 5 8 9 12 10 14 14 12 10 8 11 12 9 10 9 9 8 8 6 5 5
3 4 4 4 4 4 4 3 3 4 4 4 4 4 3 4 3 2 7 7 7 8 10 7 4 5 4 5 5 5 5 4 5 6 8 10 12 9 12 11 12 10 10 10 11 10 7 7 9 8 7 7 7 7
3 3 4 4 4 4 4 3 3 4 4 4 4 5 4 5 4 4 6 6 7 8 11 9 6 5 5 5 5 6 7 8 8 9 10 11 10 10 10 11 12 10 11 11 12 10 11 10 8 7 8 7 6 7
3 3 3 4 4 4 4 4 4 4 4 4 5 5 5 5 4 5 6 6 6 6 9 11 6 6 5 5 5 6 6 9 9 10 10 10 9 10 12 13 10 9 9 9 10 8 8 8 8 8 9 8 6 5
4 3 3 3 3 4 4 4 4 5 5 5 5 5 5 5 6 7 6 6 5 6 8 10 9 6 5 6 7 6 7 7 8 10 9 10 9 9 12 13 10 9 9 8 8 8 9 9 10 8 8 7 5 4
4 4 3 3 3 4 4 5 5 5 5 5 5 5 5 5 6 7 4 3 5 8 8 11 10 8 6 8 8 7 9 8 8 9 9 10 9 10 12 11 9 8 8 8 8 8 9 8 8 8 7 7 7 6
4 4 4 4 3 4 4 5 5 5 6 6 6 5 7 8 9 7 2 3 5 8 10 10 12 12 7 8 9 8 8 10 8 10 10 10 11 13 10 10 9 8 9 9 8 8 8 9 9 8 7 6 7 6
4 4 4 4 4 4 4 4 5 6 6 6 7 8 9 7 4 4 6 7 8 9 9 11 8 10 8 9 10 10 10 11 12 10 9 12 12 9 8 8 8 8 8 8 10 10 9 10 9 8 7 7 6 6
4 4 4 4 4 4 3 4 5 6 6 6 7 7 6 4 7 7 8 8 9 9 9 8 8 9 8 10 10 10 11 12 15 12 12 12 14 9 7 8 7 7 7 7 8 8 9 9 9 9 8 7 6 6
4 5 5 4 4 4 4 4 5 6 5 6 7 6 7 7 9 10 10 9 11 11 8 9 8 8 8 8 9 10 11 11 14 10 12 13 11 9 7 7 7 7 6 6 6 7 7 7 7 8 8 8 7 6
4 4 4 4 4 4 3 4 5 5 6 6 7 8 9 9 13 12 13 12 11 9 8 8 9 8 8 8 9 10 12 12 9 12 12 11 10 8 7 6 6 6 6 6 6 6 7 7 7 7 8 7 7 7
5 5 4 4 4 4 4 4 5 5 7 8 9 13 11 11 10 10 10 9 7 7 7 7 8 8 8 9 9 12 10 10 13 14 13 10 9 8 7 6 5 6 5 6 6 6 6 7 7 7 7 7 7 7
4 4 4 4 4 4 4 4 5 6 7 9 9 13 10 8 7 7 6 7 6 5 7 8 8 8 9 10 9 10 12 13 12 13 11 9 9 8 8 6 5 5 5 6 6 6 6 6 7 7 7 6 6 6
4 4 4 4 4 4 5 5 6 6 7 9 9 10 8 9 9 8 7 7 5 6 6 7 9 10 11 10 11 11 12 13 12 10 9 8 8 8 8 7 6 5 5 5 6 6 6 6 7 7 7 6 6 6
5 4 3 4 4 5 5 6 6 8 9 9 9 8 8 8 9 7 6 6 4 6 9 8 11 11 9 11 11 10 11 10 10 9 8 8 7 8 8 8 7 7 7 7 6 6 6 6 7 7 7 6 6 6
5 3 4 4 5 5 5 6 7 8 9 9 10 9 8 6 8 7 6 5 6 7 7 9 8 11 11 12 11 9 9 8 8 8 7 7 7 7 7 7 7 7 7 7 7 7 7 7 7 6 6 6 6 6
4 3 4 4 4 5 7 7 7 9 9 8 8 7 7 7 6 5 6 4 5 4 6 8 10 11 11 9 9 8 8 8 8 8 8 7 7 7 6 6 6 7 7 7 7 7 7 7 6 6 6 7 7 6
4 4 4 4 4 5 6 6 6 8 9 8 7 8 8 7 6 5 5 5 6 6 8 9 9 9 9 8 7 7 7 7 7 7 7 6 6 6 6 6 6 6 7 7 7 7 7 7 8 6 5 6 6 5
5 4 4 4 6 6 6 6 6 7 8 8 8 8 8 7 7 7 7 5 7 8 9 8 7 7 7 6 6 7 7 6 6 6 6 6 5 5 6 6 6 6 7 7 7 6 6 7 8 7 7 7 6 5
4 4 5 5 6 6 7 6 7 6 7 9 9 8 8 8 8 8 6 8 8 7 7 7 7 7 7 8 7 6 6 6 6 6 6 6 6 6 6 5 6 6 7 7 7 7 8 8 8 8 9 9 8 7
4 4 5 6 7 8 9 5 7 7 9 8 7 9 9 9 7 5 9 7 7 6 6 6 6 6 7 6 6 6 7 6 6 6 6 5 5 6 5 5 5 6 7 8 9 9 9 8 9 9 9 8 9 9
4 5 6 7 7 9 6 8 6 7 7 9 9 10 9 8 7 9 10 8 7 7 7 6 7 8 7 7 8 7 7 7 7 7 7 7 7 7 6 4 6 6 6 9 9 9 9 9 9 9 9 9 9 9
9 8 8 12 6 8 9 9 9 9 10 9 10 9 9 7 10 10 11 8 7 7 6 7 8 7 7 8 8 7 7 7 7 7 6 7 7 9 9 9 8 8 9 9 9 8 8 8 8 8 8 8 9 9
11 8 10 8 8 9 9 11 10 10 9 9 9 8 7 9 11 11 9 7 7 6 6 7 7 8 8 8 8 8 7 6 6 7 6 7 8 8 9 9 9 9 9 9 9 8 8 7 8 8 9 8 9 9
10 9 7 5 7 7 8 8 7 9 10 10 9 9 10 11 11 9 6 6 6 5 5 5 5 6 6 7 7 6 6 5 5 5 6 6 7 7 8 9 9 9 9 8 8 8 8 8 9 9 9 9 9 8
7 7 9 8 8 7 9 9 10 10 9 7 8 10 10 10 10 7 5 5 4 5 5 5 4 4 5 5 5 5 6 8 10 10 9 9 10 10 10 9 9 9 8 8 8 8 8 9 9 9 9 9 9 9
7 6 6 9 8 8 8 9 9 7 6 7 9 9 8 6 4 5 4 4 4 5 5 6 6 6 6 6 6 6 8 9 10 10 10 10 10 9 10 10 9 9 8 8 8 8 8 8 8 9 8 9 9 9
8 7 8 8 9 10 8 6 7 5 4 5 5 5 5 5 3 2 3 4 5 5 4 4 5 6 6 6 7 8 9 9 8 9 10 10 9 8 9 10 9 10 10 9 9 9 8 9 9 9 9 8 8 7
6 6 7 8 8 7 6 4 4 5 5 5 5 6 6 5 4 3 3 3 3 4 5 5 5 4 5 5 6 7 8 8 8 7 8 8 8 9 9 9 9 9 9 9 9 9 9 10 10 9 8 8 7 7
7 8 8 9 8 6 5 6 6 6 6 6 7 6 6 6 7 5 3 3 4 5 6 5 5 5 4 4 3 4 8 5 7 7 7 8 8 9 9 9 9 9 8 8 8 8 8 9 9 9 9 8 7 6
7 7 7 8 8 8 6 7 7 8 7 7 7 6 6 7 8 5 4 3 4 5 5 4 5 5 4 4 6 7 8 7 9 10 10 9 9 9 9 9 9 8 8 8 7 7 8 8 8 8 8 7 7 6